Regional Weather Roundup
Issued by NWS Sioux Falls, SD

Home | Current Version | Previous Version | Text Only | Print | Product List | Glossary On
Versions: 1 2 3 4 5 6 7 8 9 10 11 12 13 14 15 16 17 18 19 20 21 22 23 24 25 26 27 28 29 30 31 32 33 34 35 36 37 38 39 40 41 42 43 44 45 46 47 48 49 50
000
ASUS43 KFSD 242302
RWRFSD

WEATHER ROUNDUP FOR SE SOUTH DAKOTA/SW MINNESOTA/NW IOWA
NATIONAL WEATHER SERVICE SIOUX FALLS SD
500 PM CST FRI NOV 24 2017

NOTE: "FAIR" INDICATES FEW OR NO CLOUDS BELOW 12,000 FEET WITH NO
SIGNIFICANT WEATHER AND OR OBSTRUCTIONS TO VISIBILITY.


SDZ038>040-050-052>070-250000-
SOUTHEAST SOUTH DAKOTA

CITY           SKY/WX    TMP DP  RH WIND       PRES   REMARKS
BROOKINGS      CLEAR     46  34  62 NW10      29.72R
CHAMBERLAIN    CLEAR     54  37  53 NW13      29.81R
HURON          CLEAR     47  34  60 NW12      29.75R
MADISON        FAIR      48  36  61 NW18G25   29.73R
MITCHELL       CLEAR     51  32  48 NW12      29.76R
SIOUX FALLS    PTCLDY    51  38  60 NW17      29.71R
WINNER         FAIR      53  34  48 NW12      29.83R
YANKTON        CLEAR     53  34  48 NW13      29.76R
$$

MNZ071-072-080-081-089-090-097-098-250000-
SOUTHWEST MINNESOTA

CITY           SKY/WX    TMP DP  RH WIND       PRES   REMARKS
FAIRMONT       CLEAR     51  40  65 NW24G31   29.61R
JACKSON        CLEAR     50  36  57 NW26G37   29.65R
MARSHALL       CLEAR     48  36  63 NW14      29.67R
MONTEVIDEO     CLEAR     48  36  61 N13G21    29.65R
PIPESTONE      CLEAR     46  36  66 NW13G20   29.69R
REDWOOD FALLS  CLEAR     48  37  65 NW14      29.62R
WINDOM         CLEAR     48  32  53 NW25G33   29.64R
WORTHINGTON    CLEAR     49  35  58 NW22G28   29.67R
$$

IAZ001>003-012>014-020>022-031-032-NEZ013-014-SDZ071-250000-
NORTHWEST IOWA

CITY           SKY/WX    TMP DP  RH WIND       PRES   REMARKS
CHEROKEE       PTCLDY    55  40  56 NW20G33   29.68R
DENISON        CLOUDY    59  39  47 NW20G26   29.69R
ESTHERVILLE    PTCLDY    50  40  68 NW22G32   29.63R
LE MARS        CLEAR     54  39  58 NW15G26   29.71R
ORANGE CITY    CLEAR     54  37  54 N15G25    29.70R
SHELDON        CLEAR     52  37  58 NW22G30   29.67R
SIOUX CITY     CLEAR     56  39  53 NW26G43   29.71R
SPENCER        PTCLDY    53  37  54 N25G35    29.66R
STORM LAKE     PTCLDY    55  41  58 NW23      29.65R
$$

ABBREVIATIONS USED IN REMARKS
   TC - TEMPERATURE IN CELSIUS
  WCI - WIND CHILL INDEX
   HX - HEAT INDEX
  VSB - VISIBILITY





USA.gov is the U.S. government's official web portal to all federal, state and local government web resources and services.